LA8QT Lodingen NO current weather conditions

sailwx.info

Wind from 358 at 11 knots

Air temperature 14.4° C
Dewpoint 11.8° C

Last reported at 2016-Jul-31 05:44 UTC.
Time now 2016-Jul-31 07:16 UTC

Location: N 68°28' E 016°04'.
View on Google Maps.

See reports from other nearby stations

  
Tides and Currents Weather Stations Pressure Air Temp Water Temp Dewpoint Dewpoint Depression Visibility Wind Speed Wind Dir Waves Ship Positions
date/time (UTC)wind fromknots sea level pressurealtimeterstation pressurevisibilityair tempwater tempwave heightnotes
2016-Jul-31 05:44 358 11 14.4
2016-Jul-31 05:29 347 12 14.4
2016-Jul-31 05:14 353 10 13.9
2016-Jul-31 04:59 358 11 13.9
2016-Jul-31 04:44 346 10 13.9
2016-Jul-31 04:29 348 11 13.9
2016-Jul-31 04:14 004 10 13.9
2016-Jul-31 03:59 337 10 13.9
2016-Jul-31 03:44 007 11 13.9
2016-Jul-31 03:29 358 10 13.9
2016-Jul-31 03:14 359 11 13.9
2016-Jul-31 02:59 346 11 13.9
2016-Jul-31 02:44 001 11 13.9
2016-Jul-31 02:30 003 12 14.4
2016-Jul-31 02:14 328 13 14.4
2016-Jul-31 01:59 350 13 14.4
2016-Jul-31 01:44 002 11 13.9
2016-Jul-31 01:29 007 11 14.4
2016-Jul-31 01:14 344 12 14.4
2016-Jul-31 00:59 334 12 14.4
2016-Jul-30 23:29 355 11 14.4
2016-Jul-30 23:14 005 11 14.4
2016-Jul-30 22:59 011 11 14.4
2016-Jul-30 22:44 346 11 15.0
2016-Jul-30 22:29 333 12 15.0
2016-Jul-30 22:14 004 12 15.0
2016-Jul-30 21:59 295 11 15.0
2016-Jul-30 21:44 348 13 15.0
2016-Jul-30 21:29 295 12 15.0
2016-Jul-30 21:13 331 12 15.0
2016-Jul-30 20:58 319 10 15.0
2016-Jul-30 20:43 323 9 15.6
2016-Jul-30 20:28 351 11 15.6
2016-Jul-30 20:14 344 13 15.6
2016-Jul-30 19:58 295 12 15.6
2016-Jul-30 19:43 331 11 16.1
2016-Jul-30 19:29 339 11 16.1
2016-Jul-30 19:14 295 12 16.1
2016-Jul-30 18:58 295 10 16.1
2016-Jul-30 18:43 295 11 16.1
2016-Jul-30 18:28 344 12 16.1
2016-Jul-30 18:13 295 12 16.7
2016-Jul-30 17:58 295 12 16.7
2016-Jul-30 17:43 295 12 16.7
2016-Jul-30 17:28 328 11 16.7
2016-Jul-30 17:13 335 10 17.2
2016-Jul-30 16:58 295 10 17.2
2016-Jul-30 16:43 005 11 17.2
2016-Jul-30 16:28 295 9 17.8
2016-Jul-30 16:13 020 9 17.8
2016-Jul-30 15:58 316 9 18.3
2016-Jul-30 15:43 350 7 17.8
2016-Jul-30 15:29 343 9 18.3
2016-Jul-30 15:13 015 9 18.3
2016-Jul-30 14:58 295 10 18.3
2016-Jul-30 14:43 295 11 18.3
2016-Jul-30 14:28 354 11 18.3
2016-Jul-30 14:13 295 12 17.8
2016-Jul-30 13:58 295 12 18.3
2016-Jul-30 13:43 295 10 18.3
2016-Jul-30 13:28 295 11 18.3
2016-Jul-30 13:13 295 11 18.3
2016-Jul-30 12:58 295 10 17.8
2016-Jul-30 12:43 295 10 18.3
2016-Jul-30 12:28 295 11 17.8
2016-Jul-30 12:13 359 11 17.8
2016-Jul-30 11:58 358 10 17.8
2016-Jul-30 11:43 333 11 17.2
2016-Jul-30 11:28 295 11 17.2
2016-Jul-30 11:13 295 11 17.2
2016-Jul-30 10:58 295 11 17.2
2016-Jul-30 10:43 295 10 17.2
2016-Jul-30 10:28 295 11 17.2
2016-Jul-30 10:13 295 10 16.7
2016-Jul-30 09:58 295 11 16.7
2016-Jul-30 09:43 019 10 16.7
2016-Jul-30 09:28 348 9 16.7
2016-Jul-30 09:13 018 10 16.1
2016-Jul-30 08:58 033 10 16.1
2016-Jul-30 08:43 358 8 16.1
2016-Jul-30 08:28 359 9 15.6
2016-Jul-30 08:13 352 9 15.6
2016-Jul-30 07:58 295 9 15.6
2016-Jul-30 07:43 339 10 15.6
2016-Jul-30 07:28 358 9 15.6
2016-Jul-30 07:13 353 9 15.6
2016-Jul-30 06:58 006 10 15.0
2016-Jul-30 06:43 295 10 15.0
2016-Jul-30 06:28 025 10 15.0
2016-Jul-30 06:13 003 10 15.0
2016-Jul-30 05:58 357 11 15.0
2016-Jul-30 05:43 295 9 15.0
2016-Jul-30 05:28 346 10 14.4
2016-Jul-30 05:13 295 11 14.4
2016-Jul-30 04:58 003 11 14.4
2016-Jul-30 04:43 002 9 14.4
2016-Jul-30 04:28 348 8 15.0
2016-Jul-30 04:12 339 8 14.4
2016-Jul-30 03:57 314 9 14.4
2016-Jul-30 03:42 300 8 13.9
2016-Jul-30 03:27 327 8 13.9
2016-Jul-30 03:12 335 6 13.3
2016-Jul-30 02:57 341 7 13.3
2016-Jul-30 02:42 353 7 13.3
2016-Jul-30 02:27 346 7 12.8
2016-Jul-30 02:12 337 7 12.8
2016-Jul-30 01:57 341 6 12.8
2016-Jul-30 01:42 325 5 12.8
2016-Jul-30 01:27 332 5 12.2
2016-Jul-30 01:12 351 5 12.2
2016-Jul-30 00:57 319 4 12.2
2016-Jul-30 00:42 331 4 12.2
2016-Jul-30 00:27 331 5 12.2
2016-Jul-30 00:12 335 5 12.2
2016-Jul-29 23:57 339 3 12.2
2016-Jul-29 23:42 314 5 12.2
2016-Jul-29 23:27 312 2 12.2
2016-Jul-29 23:12 339 3 12.2
2016-Jul-29 23:03 327 3 12.2
2016-Jul-29 22:55 352 3 12.8
2016-Jul-29 22:47 322 3 12.8
2016-Jul-29 22:40 346 2 12.8
2016-Jul-29 22:31 259 12.2
2016-Jul-29 22:22 259 12.2
2016-Jul-29 22:15 259 12.8
2016-Jul-29 22:05 258 12.8
2016-Jul-29 21:58 259 12.8
2016-Jul-29 21:49 269 12.8
2016-Jul-29 21:41 269 12.8
2016-Jul-29 21:32 172 13.3
2016-Jul-29 21:20 138 13.9
2016-Jul-29 21:09 138 13.9
2016-Jul-29 20:24 138 0 13.9
2016-Jul-29 19:36 193 13.9
2016-Jul-29 18:57 165 1 13.9
2016-Jul-29 18:42 131 0 14.4
2016-Jul-29 18:27 160 1 14.4
2016-Jul-29 18:12 133 7 14.4
2016-Jul-29 17:57 123 1 15.0
2016-Jul-29 17:42 222 0 15.6
2016-Jul-29 17:27 234 3 15.0
2016-Jul-29 17:12 137 6 15.0
2016-Jul-29 16:57 132 0 16.7
2016-Jul-29 16:42 188 0 16.7
2016-Jul-29 16:27 165 16.7
2016-Jul-29 16:12 194 0 16.7
2016-Jul-29 15:57 222 5 16.7
2016-Jul-29 15:42 208 3 17.2
2016-Jul-29 15:27 182 1 17.2
2016-Jul-29 15:12 141 2 17.8
2016-Jul-29 14:57 295 3 17.8
2016-Jul-29 14:42 138 2 16.1
2016-Jul-29 14:26 158 2 16.7
2016-Jul-29 14:11 157 2 17.2
2016-Jul-29 13:56 162 3 16.1
2016-Jul-29 13:41 201 5 15.6
2016-Jul-29 13:26 135 3 16.7
2016-Jul-29 13:11 176 3 17.8
2016-Jul-29 12:56 295 5 17.2
2016-Jul-29 12:41 209 3 16.7
2016-Jul-29 12:26 164 4 16.1
2016-Jul-29 12:11 152 5 16.7
2016-Jul-29 11:56 129 6 16.1
2016-Jul-29 11:41 094 3 15.6
2016-Jul-29 11:26 142 4 15.0
2016-Jul-29 11:11 108 4 15.6
2016-Jul-29 10:56 154 3 15.6
2016-Jul-29 10:41 146 3 15.6
2016-Jul-29 10:26 178 2 15.0
2016-Jul-29 10:11 173 2 15.0
2016-Jul-29 09:56 122 5 14.4
2016-Jul-29 09:41 149 5 14.4
2016-Jul-29 09:26 192 4 14.4
2016-Jul-29 09:11 162 3 14.4
2016-Jul-29 08:56 128 4 14.4
2016-Jul-29 08:41 183 4 14.4
2016-Jul-29 08:26 139 7 14.4
2016-Jul-29 08:11 131 8 14.4
2016-Jul-29 07:56 133 10 14.4
2016-Jul-29 07:41 132 8 14.4
2016-Jul-29 07:26 135 10 13.9
2016-Jul-29 07:11 132 10 13.9